Location: Killam
(52.7910°N, 111.8608°W)
Time: 12:42:31
(UTC+00:00)

AO-73 - Pass Details

Date: 17 March 2026
Orbit: 514 x 567 km, 97.8° (Epoch: 13 April)

Event Time Altitude Azimuth Distance (km) Brightness Sun altitude
Rises 10:14:14 0° 27° (NNE) 2,669 ? -28.9°
Reaches altitude 10° 10:17:00 10° 49° (NE) 1,766 ? -28.6°
Maximum altitude 10:19:29 17° 90° (E) 1,387 ? -28.3°
Enters shadow 10:20:30 15° 110° (ESE) 1,451 ? -28.2°
